Torna al catalogo

STARLINK-34767

AttivoComunicazioniVLEO
NORAD 66507·PAYLOAD·🇺🇸 United States

Lanciato Nov 15, 2025 da Cape Canaveral Space Force Station

Loading…

Prossimi Passaggi (prossime 24 ore)

TLE

AggiornatoSource: CelesTrak SupGP

Epoca: Sep 14, 2026, 22:37 UTC

1 66507C 25263Y   26257.94284722 -.00012771  00000+0 -46253-3 0  2571
2 66507  43.0024   2.1415 0001557 268.5001 316.6279 15.27587523    12

Traccia STARLINK-34767 in tempo reale con AllMySat

Download on the App Store